FYT9089 LIRF-LOWW

Flight info

Callsign FYT9089
Flight time 1h 18m
Altitude 34000
Route TIBER Q549 KATAR L865 GOTMO/N0442F340 DCT NIKOL DCT LAPNA
Aircraft A321/M-SDE1FGHIJ1RWXY/S

Departure

Time 2026-05-07 16:32
Airport Rome–Fiumicino Leonardo da Vinci International Airport (LIRF)

Arrival

Time 2026-05-07 17:50
Airport Vienna International Airport (LOWW)
Time Latitude Longitude Altitude Speed Heading
2026-05-07 15:52 41.80090 12.26152 16 ft 0 kts 205°
2026-05-07 16:23 41.80098 12.26157 16 ft 2 kts 205°
2026-05-07 16:23 41.80112 12.26166 16 ft 2 kts 205°
2026-05-07 16:24 41.80115 12.26168 16 ft 0 kts 205°
2026-05-07 16:24 41.80116 12.26168 17 ft 1 kts 205°
2026-05-07 16:24 41.80130 12.26176 17 ft 2 kts 202°
2026-05-07 16:24 41.80142 12.26184 17 ft 1 kts 205°
2026-05-07 16:25 41.80148 12.26189 17 ft 1 kts 256°
2026-05-07 16:25 41.80148 12.26196 17 ft 0 kts 299°
2026-05-07 16:25 41.80145 12.26203 16 ft 0 kts 295°
2026-05-07 16:27 41.80148 12.26196 16 ft 2 kts 295°
2026-05-07 16:27 41.80165 12.26150 17 ft 8 kts 296°
2026-05-07 16:27 41.80193 12.26073 17 ft 9 kts 314°
2026-05-07 16:28 41.80259 12.26068 17 ft 10 kts 13°
2026-05-07 16:28 41.80330 12.26108 17 ft 11 kts 24°
2026-05-07 16:28 41.80408 12.26155 17 ft 12 kts 24°
2026-05-07 16:28 41.80491 12.26205 16 ft 13 kts 27°
2026-05-07 16:29 41.80543 12.26304 16 ft 14 kts 70°
2026-05-07 16:29 41.80583 12.26449 16 ft 18 kts 68°
2026-05-07 16:29 41.80631 12.26608 15 ft 18 kts 67°
2026-05-07 16:29 41.80674 12.26773 15 ft 19 kts 71°
2026-05-07 16:30 41.80722 12.26941 14 ft 19 kts 68°
2026-05-07 16:30 41.80823 12.27027 14 ft 19 kts 349°
2026-05-07 16:30 41.80860 12.27013 14 ft 0 kts 341°
2026-05-07 16:30 41.80862 12.27012 14 ft 2 kts 341°
2026-05-07 16:31 41.80925 12.26982 14 ft 16 kts 335°
2026-05-07 16:31 41.80907 12.26739 15 ft 58 kts 249°
2026-05-07 16:31 41.80674 12.25895 17 ft 130 kts 250°
2026-05-07 16:31 41.80285 12.24533 139 ft 174 kts 251°
2026-05-07 16:32 41.79855 12.23049 884 ft 172 kts 250°
2026-05-07 16:32 41.79407 12.21597 1685 ft 171 kts 245°
2026-05-07 16:32 41.78695 12.20348 2346 ft 172 kts 224°
2026-05-07 16:32 41.77838 12.19247 2981 ft 173 kts 233°
2026-05-07 16:33 41.77535 12.17739 3486 ft 178 kts 283°
2026-05-07 16:33 41.78239 12.16395 3870 ft 189 kts 332°
2026-05-07 16:33 41.79556 12.16176 4260 ft 202 kts 15°
2026-05-07 16:33 41.80792 12.17155 4678 ft 217 kts 40°
2026-05-07 16:34 41.82029 12.18484 5042 ft 239 kts 38°
2026-05-07 16:34 41.83413 12.19896 5499 ft 259 kts 37°
2026-05-07 16:34 41.84892 12.21360 6064 ft 273 kts 37°
2026-05-07 16:34 41.86435 12.22859 6856 ft 278 kts 37°
2026-05-07 16:35 41.88011 12.24382 7671 ft 282 kts 36°
2026-05-07 16:35 41.89607 12.25919 8458 ft 287 kts 36°
2026-05-07 16:35 41.91225 12.27474 9238 ft 291 kts 36°
2026-05-07 16:35 41.92863 12.29045 10002 ft 295 kts 36°
2026-05-07 16:36 41.94551 12.30663 10597 ft 305 kts 35°
2026-05-07 16:36 41.96331 12.32369 10977 ft 323 kts 35°
2026-05-07 16:36 41.98197 12.34160 11352 ft 339 kts 35°
2026-05-07 16:36 42.00153 12.36038 11968 ft 346 kts 35°
2026-05-07 16:37 42.02088 12.37900 12658 ft 350 kts 35°
2026-05-07 16:37 42.04094 12.39830 13349 ft 354 kts 34°
2026-05-07 16:37 42.06092 12.41752 14012 ft 358 kts 34°
2026-05-07 16:37 42.08135 12.43720 14657 ft 363 kts 34°
2026-05-07 16:38 42.10173 12.45683 15273 ft 367 kts 34°
2026-05-07 16:38 42.12273 12.47706 15902 ft 371 kts 34°
2026-05-07 16:38 42.14350 12.49710 16558 ft 375 kts 34°
2026-05-07 16:38 42.16481 12.51769 17144 ft 380 kts 34°
2026-05-07 16:39 42.18639 12.53855 17712 ft 384 kts 33°
2026-05-07 16:39 42.20815 12.55961 18279 ft 388 kts 33°
2026-05-07 16:39 42.23024 12.58044 18796 ft 392 kts 29°
2026-05-07 16:39 42.25507 12.59600 19335 ft 391 kts 14°
2026-05-07 16:40 42.28140 12.60346 19900 ft 388 kts
2026-05-07 16:40 42.30807 12.60636 20451 ft 390 kts 359°
2026-05-07 16:40 42.33547 12.60851 20986 ft 393 kts 358°
2026-05-07 16:40 42.36268 12.61065 21527 ft 396 kts 358°
2026-05-07 16:41 42.39035 12.61301 22063 ft 399 kts 358°
2026-05-07 16:41 42.41795 12.61557 22601 ft 402 kts 358°
2026-05-07 16:41 42.44608 12.61827 23092 ft 406 kts 358°
2026-05-07 16:41 42.47393 12.62097 23600 ft 408 kts 358°
2026-05-07 16:42 42.50243 12.62375 24097 ft 411 kts 358°
2026-05-07 16:42 42.53104 12.62660 24582 ft 414 kts 358°
2026-05-07 16:42 42.55983 12.62943 25055 ft 417 kts 358°
2026-05-07 16:42 42.58934 12.63232 25508 ft 420 kts 358°
2026-05-07 16:43 42.61852 12.63520 25946 ft 423 kts 357°
2026-05-07 16:43 42.64843 12.63813 26366 ft 427 kts 357°
2026-05-07 16:43 42.67816 12.64105 26774 ft 430 kts 357°
2026-05-07 16:43 42.70817 12.64401 27182 ft 433 kts 357°
2026-05-07 16:44 42.73811 12.64696 27610 ft 435 kts 357°
2026-05-07 16:44 42.76878 12.64996 28011 ft 438 kts 356°
2026-05-07 16:44 42.79942 12.65298 28401 ft 440 kts 357°
2026-05-07 16:44 42.82991 12.65597 28760 ft 442 kts 357°
2026-05-07 16:45 42.86042 12.65898 29117 ft 444 kts 357°
2026-05-07 16:45 42.89128 12.66203 29493 ft 446 kts 357°
2026-05-07 16:45 42.92205 12.66509 29942 ft 445 kts 356°
2026-05-07 16:45 42.95307 12.66818 30477 ft 442 kts 356°
2026-05-07 16:46 42.98342 12.67275 30939 ft 447 kts
2026-05-07 16:46 43.01381 12.68265 31314 ft 456 kts 10°
2026-05-07 16:46 43.04390 12.69850 31688 ft 465 kts 19°
2026-05-07 16:46 43.07227 12.71994 32092 ft 472 kts 27°
2026-05-07 16:47 43.09849 12.74677 32470 ft 478 kts 36°
2026-05-07 16:47 43.12242 12.77865 32785 ft 484 kts 43°
2026-05-07 16:47 43.14522 12.81292 33095 ft 487 kts 44°
2026-05-07 16:47 43.16822 12.84688 33386 ft 487 kts 41°
2026-05-07 16:48 43.19266 12.87857 33665 ft 486 kts 37°
2026-05-07 16:48 43.21854 12.90774 33898 ft 486 kts 32°
2026-05-07 16:48 43.24616 12.93471 33995 ft 484 kts 27°
2026-05-07 16:49 43.30376 12.98089 33998 ft 480 kts 22°
2026-05-07 16:49 43.36231 13.02449 33991 ft 480 kts 22°
2026-05-07 16:50 43.42043 13.06816 33999 ft 479 kts 22°
2026-05-07 16:50 43.47892 13.11248 33983 ft 480 kts 22°
2026-05-07 16:51 43.53703 13.15676 33987 ft 479 kts 22°
2026-05-07 16:51 43.59523 13.20116 33983 ft 480 kts 22°
2026-05-07 16:52 43.65337 13.24569 33978 ft 479 kts 22°
2026-05-07 16:52 43.71166 13.29041 33976 ft 478 kts 22°
2026-05-07 16:53 43.76937 13.33474 33972 ft 479 kts 22°
2026-05-07 16:53 43.82744 13.37949 33970 ft 479 kts 22°
2026-05-07 16:54 43.88564 13.42444 33977 ft 478 kts 22°
2026-05-07 16:54 43.94357 13.46927 33971 ft 478 kts 22°
2026-05-07 16:55 44.00134 13.51409 33964 ft 478 kts 23°
2026-05-07 16:55 44.05923 13.55909 33967 ft 477 kts 23°
2026-05-07 16:56 44.11715 13.60424 33970 ft 477 kts 22°
2026-05-07 16:56 44.20366 13.67180 33972 ft 476 kts 23°
2026-05-07 16:57 44.26115 13.71617 33974 ft 475 kts 23°
2026-05-07 16:57 44.31934 13.76016 33972 ft 475 kts 22°
2026-05-07 16:58 44.37709 13.80395 33967 ft 475 kts 22°
2026-05-07 16:58 44.43501 13.84804 33976 ft 475 kts 23°
2026-05-07 16:59 44.49297 13.89230 33974 ft 475 kts 23°
2026-05-07 16:59 44.55082 13.93660 33977 ft 475 kts 23°
2026-05-07 17:00 44.60873 13.98103 33981 ft 474 kts 23°
2026-05-07 17:00 44.66633 14.02534 33984 ft 473 kts 23°
2026-05-07 17:01 44.72380 14.06962 33990 ft 473 kts 23°
2026-05-07 17:01 44.78133 14.11405 33989 ft 473 kts 23°
2026-05-07 17:02 44.83869 14.15848 33988 ft 472 kts 23°
2026-05-07 17:02 44.89658 14.20339 33988 ft 472 kts 23°
2026-05-07 17:03 44.95398 14.24804 33985 ft 473 kts 23°
2026-05-07 17:03 45.01156 14.29293 33991 ft 473 kts 23°
2026-05-07 17:04 45.06895 14.33779 33978 ft 473 kts 23°
2026-05-07 17:04 45.12610 14.38255 33971 ft 473 kts 23°
2026-05-07 17:05 45.18377 14.42783 33986 ft 472 kts 23°
2026-05-07 17:05 45.24068 14.47260 33983 ft 472 kts 23°
2026-05-07 17:06 45.25851 14.48665 33988 ft 472 kts 23°
2026-05-07 17:06 45.27970 14.50338 33983 ft 472 kts 23°
2026-05-07 17:07 45.33726 14.54884 33988 ft 472 kts 23°
2026-05-07 17:07 45.39455 14.59417 34001 ft 472 kts 23°
2026-05-07 17:08 45.45156 14.63940 34006 ft 473 kts 23°
2026-05-07 17:08 45.50896 14.68505 33987 ft 473 kts 24°
2026-05-07 17:09 45.56642 14.73088 33990 ft 473 kts 24°
2026-05-07 17:09 45.62367 14.77665 33989 ft 473 kts 24°
2026-05-07 17:10 45.68089 14.82250 33972 ft 473 kts 24°
2026-05-07 17:10 45.73831 14.86861 33976 ft 473 kts 24°
2026-05-07 17:11 45.79522 14.91441 33971 ft 474 kts 24°
2026-05-07 17:11 45.85264 14.96074 33968 ft 474 kts 24°
2026-05-07 17:12 45.90993 15.00711 33959 ft 473 kts 24°
2026-05-07 17:12 45.96704 15.05342 33957 ft 472 kts 24°
2026-05-07 17:13 46.02394 15.09965 33948 ft 473 kts 24°
2026-05-07 17:13 46.05244 15.12284 33828 ft 471 kts 24°
2026-05-07 17:13 46.08120 15.14628 33077 ft 476 kts 25°
2026-05-07 17:14 46.11000 15.16970 32022 ft 485 kts 25°
2026-05-07 17:14 46.13926 15.19356 31105 ft 490 kts 25°
2026-05-07 17:14 46.16887 15.21779 30261 ft 492 kts 25°
2026-05-07 17:14 46.19848 15.24208 29424 ft 493 kts 25°
2026-05-07 17:15 46.22832 15.26658 28590 ft 494 kts 26°
2026-05-07 17:15 46.25820 15.29112 27873 ft 490 kts 26°
2026-05-07 17:15 46.28719 15.31500 27248 ft 485 kts 26°
2026-05-07 17:15 46.31621 15.33892 26697 ft 477 kts 26°
2026-05-07 17:16 46.34435 15.36217 26185 ft 462 kts 26°
2026-05-07 17:16 46.37222 15.38518 25715 ft 456 kts 26°
2026-05-07 17:16 46.39943 15.40765 25254 ft 452 kts 26°
2026-05-07 17:16 46.42659 15.43008 24789 ft 447 kts 26°
2026-05-07 17:17 46.45326 15.45215 24353 ft 442 kts 27°
2026-05-07 17:17 46.48003 15.47434 23908 ft 438 kts 27°
2026-05-07 17:17 46.50618 15.49605 23487 ft 433 kts 27°
2026-05-07 17:17 46.53122 15.51601 23086 ft 424 kts 24°
2026-05-07 17:18 46.55783 15.53434 22621 ft 416 kts 20°
2026-05-07 17:18 46.58416 15.55067 22086 ft 413 kts 20°
2026-05-07 17:18 46.61039 15.56657 21574 ft 408 kts 19°
2026-05-07 17:18 46.63618 15.58216 21097 ft 404 kts 20°
2026-05-07 17:19 46.66205 15.59785 20637 ft 400 kts 20°
2026-05-07 17:19 46.68731 15.61321 20168 ft 396 kts 20°
2026-05-07 17:19 46.71269 15.62869 19700 ft 392 kts 20°
2026-05-07 17:19 46.73777 15.64405 19237 ft 387 kts 20°
2026-05-07 17:20 46.76224 15.65906 18773 ft 384 kts 21°
2026-05-07 17:20 46.78658 15.67400 18341 ft 381 kts 21°
2026-05-07 17:20 46.81092 15.68896 17882 ft 378 kts 21°
2026-05-07 17:20 46.83487 15.70369 17425 ft 374 kts 21°
2026-05-07 17:21 46.85871 15.71837 16988 ft 371 kts 21°
2026-05-07 17:21 46.88245 15.73300 16539 ft 368 kts 21°
2026-05-07 17:21 46.90597 15.74750 16084 ft 366 kts 21°
2026-05-07 17:21 46.92916 15.76182 15645 ft 363 kts 21°
2026-05-07 17:22 46.95223 15.77608 15207 ft 361 kts 21°
2026-05-07 17:22 46.97528 15.79035 14760 ft 359 kts 21°
2026-05-07 17:22 46.99833 15.80461 14313 ft 356 kts 21°
2026-05-07 17:22 47.02085 15.81858 13875 ft 354 kts 21°
2026-05-07 17:23 47.04349 15.83264 13436 ft 351 kts 21°
2026-05-07 17:23 47.06576 15.84648 13008 ft 348 kts 21°
2026-05-07 17:23 47.08790 15.86024 12570 ft 346 kts 21°
2026-05-07 17:23 47.11014 15.87406 12132 ft 343 kts 21°
2026-05-07 17:24 47.13222 15.88781 11697 ft 340 kts 21°
2026-05-07 17:24 47.15387 15.90131 11268 ft 337 kts 22°
2026-05-07 17:24 47.17538 15.91471 10837 ft 334 kts 22°
2026-05-07 17:24 47.19660 15.92797 10470 ft 327 kts 22°
2026-05-07 17:25 47.21699 15.94071 10256 ft 308 kts 22°
2026-05-07 17:25 47.23610 15.95267 10122 ft 291 kts 22°
2026-05-07 17:25 47.25437 15.96408 9987 ft 283 kts 22°
2026-05-07 17:25 47.27248 15.97542 9769 ft 281 kts 22°
2026-05-07 17:26 47.29037 15.98661 9425 ft 279 kts 22°
2026-05-07 17:26 47.30806 15.99772 9084 ft 278 kts 22°
2026-05-07 17:26 47.32599 16.00898 8759 ft 277 kts 21°
2026-05-07 17:26 47.34354 16.02003 8423 ft 275 kts 21°
2026-05-07 17:27 47.36122 16.03114 8098 ft 273 kts 20°
2026-05-07 17:27 47.37870 16.04093 7961 ft 266 kts 17°
2026-05-07 17:27 47.39609 16.04962 7957 ft 264 kts 16°
2026-05-07 17:27 47.41365 16.05827 7958 ft 263 kts 16°
2026-05-07 17:28 47.43093 16.06677 7963 ft 263 kts 16°
2026-05-07 17:28 47.44833 16.07537 7969 ft 263 kts 17°
2026-05-07 17:28 47.46508 16.08777 7853 ft 280 kts 36°
2026-05-07 17:28 47.47961 16.10736 7739 ft 285 kts 43°
2026-05-07 17:29 47.49340 16.12817 7615 ft 284 kts 44°
2026-05-07 17:29 47.50734 16.14899 7487 ft 285 kts 43°
2026-05-07 17:29 47.52145 16.16944 7363 ft 284 kts 42°
2026-05-07 17:29 47.53577 16.18976 7243 ft 283 kts 41°
2026-05-07 17:30 47.54989 16.20951 7113 ft 282 kts 41°
2026-05-07 17:30 47.56426 16.22945 6989 ft 282 kts 41°
2026-05-07 17:30 47.57855 16.24919 6863 ft 281 kts 41°
2026-05-07 17:30 47.59287 16.26890 6735 ft 280 kts 41°
2026-05-07 17:31 47.60718 16.28862 6615 ft 279 kts 40°
2026-05-07 17:31 47.62121 16.30796 6493 ft 276 kts 40°
2026-05-07 17:31 47.63538 16.32747 6368 ft 275 kts 40°
2026-05-07 17:31 47.64941 16.34675 6237 ft 276 kts 40°
2026-05-07 17:32 47.66353 16.36616 6117 ft 276 kts 41°
2026-05-07 17:32 47.67739 16.38526 5994 ft 275 kts 41°
2026-05-07 17:32 47.69151 16.40474 5870 ft 275 kts 41°
2026-05-07 17:32 47.70090 16.41771 5786 ft 275 kts 41°
2026-05-07 17:33 47.71951 16.44343 5624 ft 272 kts 41°
2026-05-07 17:33 47.73367 16.46141 5495 ft 270 kts 32°
2026-05-07 17:33 47.75006 16.47482 5371 ft 270 kts 24°
2026-05-07 17:33 47.76703 16.48681 5245 ft 270 kts 23°
2026-05-07 17:34 47.78418 16.49894 5123 ft 270 kts 24°
2026-05-07 17:34 47.80106 16.51122 5000 ft 269 kts 25°
2026-05-07 17:34 47.81773 16.52367 4960 ft 269 kts 25°
2026-05-07 17:34 47.83443 16.53630 4956 ft 270 kts 25°
2026-05-07 17:35 47.85126 16.54914 4953 ft 270 kts 25°
2026-05-07 17:35 47.86788 16.56189 4953 ft 268 kts 25°
2026-05-07 17:35 47.88430 16.57447 4953 ft 266 kts 26°
2026-05-07 17:35 47.90080 16.58715 4956 ft 266 kts 26°
2026-05-07 17:36 47.91740 16.59998 4954 ft 267 kts 26°
2026-05-07 17:36 47.93382 16.61268 4953 ft 268 kts 26°
2026-05-07 17:36 47.95038 16.62549 4952 ft 268 kts 26°
2026-05-07 17:36 47.96688 16.63827 4953 ft 266 kts 26°
2026-05-07 17:37 47.98338 16.65105 4954 ft 266 kts 27°
2026-05-07 17:37 47.99989 16.66386 4958 ft 266 kts 27°
2026-05-07 17:37 48.01619 16.67652 4964 ft 267 kts 27°
2026-05-07 17:37 48.03272 16.68936 4963 ft 266 kts 27°
2026-05-07 17:38 48.04928 16.70221 4964 ft 266 kts 27°
2026-05-07 17:38 48.06572 16.71500 4968 ft 266 kts 27°
2026-05-07 17:38 48.08224 16.72785 4957 ft 266 kts 27°
2026-05-07 17:38 48.09936 16.73729 4944 ft 266 kts 11°
2026-05-07 17:39 48.11786 16.73870 4952 ft 266 kts 354°
2026-05-07 17:39 48.13571 16.73218 4958 ft 266 kts 338°
2026-05-07 17:39 48.15229 16.72021 4972 ft 266 kts 333°
2026-05-07 17:39 48.16869 16.70715 4962 ft 265 kts 332°
2026-05-07 17:40 48.18516 16.69400 4964 ft 265 kts 332°
2026-05-07 17:40 48.20139 16.68125 4967 ft 265 kts 333°
2026-05-07 17:40 48.21819 16.66963 4963 ft 265 kts 337°
2026-05-07 17:40 48.23538 16.65980 4962 ft 265 kts 341°
2026-05-07 17:41 48.25316 16.65161 4969 ft 265 kts 344°
2026-05-07 17:41 48.27065 16.64426 4969 ft 262 kts 344°
2026-05-07 17:41 48.28842 16.63684 4975 ft 261 kts 344°
2026-05-07 17:41 48.30592 16.62947 4973 ft 261 kts 344°
2026-05-07 17:42 48.32343 16.62209 4970 ft 261 kts 344°
2026-05-07 17:42 48.34088 16.61478 4967 ft 261 kts 344°
2026-05-07 17:42 48.35839 16.60739 4966 ft 260 kts 343°
2026-05-07 17:42 48.37397 16.59559 4938 ft 245 kts 315°
2026-05-07 17:43 48.38215 16.57430 4954 ft 227 kts 285°
2026-05-07 17:43 48.38343 16.55184 4990 ft 209 kts 265°
2026-05-07 17:43 48.37967 16.53192 5061 ft 192 kts 248°
2026-05-07 17:43 48.37215 16.51558 5010 ft 192 kts 230°
2026-05-07 17:44 48.36142 16.50351 4990 ft 194 kts 214°
2026-05-07 17:44 48.34950 16.49374 4983 ft 195 kts 208°
2026-05-07 17:44 48.33606 16.48978 4910 ft 199 kts 185°
2026-05-07 17:44 48.32252 16.49208 4663 ft 198 kts 171°
2026-05-07 17:45 48.30915 16.49733 4402 ft 197 kts 166°
2026-05-07 17:45 48.29603 16.50328 4146 ft 195 kts 165°
2026-05-07 17:45 48.28308 16.50912 3892 ft 192 kts 165°
2026-05-07 17:45 48.27041 16.51466 3642 ft 189 kts 166°
2026-05-07 17:46 48.25786 16.52000 3394 ft 187 kts 166°
2026-05-07 17:46 48.24546 16.52522 3138 ft 177 kts 165°
2026-05-07 17:46 48.23411 16.53000 2892 ft 164 kts 166°
2026-05-07 17:46 48.22324 16.53457 2682 ft 162 kts 167°
2026-05-07 17:47 48.21234 16.53915 2482 ft 162 kts 167°
2026-05-07 17:47 48.20154 16.54372 2278 ft 162 kts 168°
2026-05-07 17:47 48.19061 16.54834 2068 ft 161 kts 168°
2026-05-07 17:47 48.17995 16.55285 1856 ft 159 kts 168°
2026-05-07 17:48 48.16925 16.55738 1638 ft 156 kts 169°
2026-05-07 17:48 48.15886 16.56176 1428 ft 156 kts 168°
2026-05-07 17:48 48.14845 16.56615 1224 ft 156 kts 169°
2026-05-07 17:48 48.13823 16.57049 1000 ft 144 kts 168°
2026-05-07 17:49 48.12907 16.57438 815 ft 135 kts 169°
2026-05-07 17:49 48.12013 16.57816 648 ft 132 kts 169°
2026-05-07 17:49 48.11173 16.58148 607 ft 104 kts 161°
2026-05-07 17:49 48.10640 16.58386 611 ft 54 kts 165°
2026-05-07 17:50 48.10395 16.58470 612 ft 29 kts 182°
2026-05-07 17:50 48.10197 16.58420 613 ft 28 kts 199°
2026-05-07 17:50 48.10178 16.58295 614 ft 16 kts 345°
2026-05-07 17:50 48.10291 16.58248 614 ft 16 kts 352°
2026-05-07 17:51 48.10404 16.58203 614 ft 16 kts 342°
2026-05-07 17:51 48.10517 16.58155 613 ft 17 kts 343°
2026-05-07 17:51 48.10631 16.58104 612 ft 17 kts 344°
2026-05-07 17:51 48.10753 16.58055 611 ft 18 kts 345°
2026-05-07 17:52 48.10878 16.58004 610 ft 19 kts 344°
2026-05-07 17:52 48.11005 16.57947 609 ft 19 kts 343°
2026-05-07 17:52 48.11116 16.57839 608 ft 19 kts 304°
2026-05-07 17:52 48.11176 16.57656 607 ft 19 kts 294°
2026-05-07 17:53 48.11237 16.57468 607 ft 20 kts 294°
2026-05-07 17:53 48.11295 16.57277 606 ft 20 kts 300°
2026-05-07 17:53 48.11363 16.57087 605 ft 21 kts 295°
2026-05-07 17:53 48.11428 16.56883 603 ft 22 kts 298°
2026-05-07 17:54 48.11497 16.56675 601 ft 22 kts 296°
2026-05-07 17:54 48.11568 16.56457 599 ft 23 kts 296°
2026-05-07 17:54 48.11637 16.56238 596 ft 20 kts 300°
2026-05-07 17:54 48.11688 16.56100 595 ft 4 kts 305°
2026-05-07 17:55 48.11722 16.56079 595 ft 6 kts
2026-05-07 17:55 48.11752 16.56111 595 ft 3 kts 35°
2026-05-07 17:55 48.11760 16.56117 595 ft 1 kts 31°
2026-05-07 17:55 48.11766 16.56123 595 ft 0 kts 29°
2026-05-07 17:56 48.11767 16.56123 595 ft 0 kts 30°